Cheyenne Regional Jerry Olson Field
KCYS : now visible

Airfield :











YOU CAN JOIN US ON...

 
LOGIN :

Register | Disclaimer

   EN    FR    IT 

 









Legend :    VFR   Marginal VFR   IFR   Intensive IFR   Very Intensive IFR
Visi :
Ceiling :
>= 8 km
>= 3000ft
5 to 8 km
1000 to 3000 ft
1500m to 5 km
500 to 1000 ft
800 to 1500m
200 to 500 ft
< 800m
< 200 ft
Symbols :   Thunderstorms  Fog  Heavy snow  Heavy precipitations  Wind > 20 kt






- Airport Elevation : 6159 ft
- IATA code : CYS


KCYS - Cheyenne Regional Jerry Olson Field

CURRENT METAR :
  • 200953Z AUTO 31010KT 10SM CLR M09/M16 A3016 RMK AO2 SLP277 T10941156 $

EXPIRED METARs :
  • 200853Z AUTO 32011KT 10SM CLR M10/M16 A3016 RMK AO2 SLP277 60000 T11001156 58004 $
  • 200753Z AUTO 30007KT 10SM FEW100 M09/M13 A3017 RMK AO2 SLP280 T10941133 $

TAF KCYS
Valid from the 20 at 06:00 until the 21 at 06:00 UTC


200553Z 2006/2106 01008KT 6SM BR VCSH OVC080
FM200900 27009KT P6SM SCT015 BKN050
FM201100 30008KT P6SM SCT050
FM201600 31015G25KT P6SM SCT100
FM210100 32010KT P6SM SCT250
KZDV FIR / North America



MET'MAP, your aeronautical weather chart ! - Copyright ORBIFLY December 2007 - Disclaimer

ORBIFLY MET'MAP TEAM :

Programming & Development : Alexandra Zaïnal
Concept & original design : Baudouin d'Aumeries
Assistance for programming : Marc-Olivier Méhu
Technical & hardware support : Manuel Goepfert

Contact : metmap@orbifly.com




SOURCES & CREDITS :

   NOAA       Earth
Advisory